RH
100 98 99 75 100 41 50 16 12 93 41 81 95 92 89 93 99 98 94 87 94 91 82 75 72 66 70 77 65 72 95 87 93 99 95 92 96 95 98 94 94 98 92
100 98 100 93 99 67 50 29 12 60 98 93 94 97 98 97 97 92 94 94 95 80 73 58 59 72 57 47 58 68 78 87 86 98 96 96 96 97 98 91 97 99 100
99 100 99 65 70 50 64 64 45 50 77 92 91 93 98 93 95 85 91 98 100 97 78 51 32 45 42 40 48 49 62 74 77 71 97 96 95 96 93 86 95 90 100
79 100 98 99 67 44 52 71 62 77 54 68 78 90 93 98 97 92 88 88 79 59 51 34 23 21 26 34 46 49 55 66 81 81 92 96 95 94 82 77 92 84 86
63 82 86 88 100 66 41 68 75 85 66 80 98 99 99 97 98 99 97 81 56 32 26 25 23 30 19 14 24 30 51 68 77 89 95 95 96 87 89 98 96 85 73
100 100 96 98 100 90 100 100 52 41 90 82 59 79 100 91 88 74 80 45 39 43 61 76 62 58 32 30 34 45 86 98 98 99 96 98 92 100 99 95 91 75 64
100 100 100 98 99 100 100 84 65 81 89 96 100 96 88 84 61 56 59 75 59 100 99 100 100 100 74 56 95 89 89 88 99 100 97 97 91 84 76 77 89 63 50
96 97 100 100 100 100 100 100 99 98 100 100 100 100 100 100 100 99 92 90 77 65 78 88 92 99 97 98 100 98 97 98 97 100 96 98 92 78 72 70 54 50 58
84 92 92 84 68 74 87 95 100 100 91 83 74 54 62 78 75 72 63 63 66 66 64 63 67 69 67 58 47 62 93 93 95 97 92 96 94 86 86 100 82 57 52
8 7 14 27 34 34 36 29 20 14 21 34 38 31 35 35 29 26 28 24 27 25 25 27 27 27 30 30 34 46 53 60 50 83 88 81 82 86 66 61 63 69 66
7 8 10 11 12 11 11 10 10 9 9 10 8 9 8 8 8 8 8 6 5 5 7 8 11 10 10 9 14 18 23 24 42 48 45 31 40 59 64 82 91 100 99
9 10 13 14 14 13 11 9 7 5 4 4 4 4 4 4 5 4 4 4 4 4 4 4 4 4 4 5 5 6 8 9 12 23 31 42 38 29 56 72 78 89 97
11 13 14 10 8 8 7 6 5 4 5 7 10 11 11 10 10 9 9 8 8 7 7 6 6 5 5 4 4 3 3 4 5 6 8 15 30 36 41 27 29 44 71
14 13 8 6 6 6 7 8 9 9 10 10 10 9 10 9 9 10 9 8 8 7 7 7 7 6 6 6 5 5 4 4 4 3 3 4 5 10 26 32 46 40 68
10 9 7 8 9 11 14 16 16 15 15 14 13 12 11 11 10 10 9 8 7 7 7 7 7 6 6 6 5 4 4 4 4 4 4 4 3 3 4 14 24 40 84
14 16 19 21 22 20 20 19 17 16 15 15 16 16 17 16 16 15 14 12 11 9 8 7 6 5 5 4 4 4 4 3 3 3 3 3 3 3 3 3 5 19 27
18 20 21 20 20 20 21 21 22 20 20 20 19 18 16 14 13 13 12 9 7 6 5 5 4 4 4 4 4 4 4 4 3 3 3 2 2 3 3 3 3 3 11
24 24 24 25 27 27 25 25 23 23 22 20 20 19 18 16 14 11 8 6 5 5 5 4 4 5 5 5 5 5 5 5 5 5 5 4 4 3 3 3 4 4 3
32 34 35 35 36 35 32 30 27 24 23 23 22 24 23 18 11 7 6 6 6 7 8 9 10 9 8 6 5 4 4 4 4 4 3 3 4 4 5 6 6 6 5
43 47 47 42 39 34 31 29 28 28 30 32 30 26 22 15 11 9 10 12 14 14 12 9 6 6 8 11 12 12 12 12 11 10 10 9 6 4 3 4 6 8 9
58 56 50 44 37 32 30 30 32 35 38 36 30 23 14 11 13 16 19 18 12 8 7 11 15 18 19 19 20 20 17 13 10 8 7 9 10 8 6 6 6 9 14
60 57 50 43 37 34 33 34 36 43 42 38 31 24 20 20 22 21 15 9 9 15 18 18 20 24 26 28 28 24 18 12 14 17 20 21 16 14 14 13 13 15 22
59 52 43 39 37 35 36 37 49 52 46 36 30 27 27 25 18 11 10 15 18 19 18 16 17 26 34 38 35 28 19 19 22 26 30 29 26 23 20 20 19 21 32
53 43 38 37 38 38 42 58 58 51 41 36 32 31 23 13 10 14 19 19 16 16 17 18 19 25 43 50 45 32 23 22 27 39 42 41 37 33 27 23 21 23 38
42 38 39 43 43 52 65 62 53 46 40 36 31 19 12 13 19 20 17 15 17 18 18 20 22 25 47 62 54 38 28 26 31 49 50 47 44 39 35 31 27 24 34
46 47 50 48 62 70 64 54 47 41 36 28 16 12 16 22 20 17 16 17 19 22 24 25 24 25 48 79 66 45 34 29 36 58 56 51 48 44 39 35 34 29 28
Wind_Speed
4 1 14 5 19 48 63 76 79 63 69 45 39 69 67 60 61 61 61 60 48 42 41 44 45 45 45 46 46 45 41 46 45 36 38 40 38 35 37 38 37 35 31
6 13 14 15 7 27 54 65 76 76 56 69 51 51 42 46 61 61 65 49 41 45 50 51 51 48 49 52 49 47 46 46 49 44 49 44 41 37 36 36 36 37 40
20 6 12 16 6 27 39 54 67 67 57 41 41 28 44 41 33 27 43 53 51 52 52 56 55 58 56 54 54 54 51 50 47 51 56 46 40 39 39 39 38 41 43
5 11 4 8 7 13 29 28 36 40 54 54 54 33 50 33 36 28 43 44 39 46 50 56 62 65 64 61 59 61 59 56 52 60 55 48 45 40 41 43 41 42 44
3 3 4 3 5 9 23 45 43 32 33 45 35 26 27 34 35 36 41 45 50 55 57 59 64 64 68 67 62 64 59 61 58 60 57 56 44 46 47 49 47 46 46
3 4 4 17 14 6 27 24 27 31 33 36 43 48 44 44 49 60 56 51 53 59 55 56 60 65 68 71 70 66 59 50 41 52 64 55 50 50 53 49 41 44 47
3 10 14 8 9 9 11 25 30 31 29 35 45 49 51 52 54 56 58 54 57 49 39 45 47 46 56 66 59 59 53 59 61 62 62 52 53 58 56 51 51 49 48
15 17 15 15 13 7 5 7 22 20 19 24 23 25 26 31 33 36 40 45 44 44 47 48 52 53 49 49 52 55 59 56 64 56 53 53 57 59 58 53 54 50 51
18 18 18 19 19 16 13 10 9 8 9 12 15 18 21 26 28 30 32 33 35 37 40 42 41 45 50 52 51 54 58 55 57 54 58 56 58 60 54 62 58 59 58
11 11 11 11 12 11 11 11 12 13 15 18 21 23 26 28 30 32 34 37 39 41 42 43 44 44 46 45 45 49 46 49 58 59 58 61 63 64 64 65 68 59 62
9 11 14 16 18 19 21 22 24 25 26 28 30 33 35 37 38 39 41 44 46 47 48 50 52 52 53 53 54 54 53 50 51 58 65 68 67 66 67 64 62 61 64
14 19 22 24 26 27 29 30 33 36 39 40 41 41 40 39 39 42 47 50 51 50 50 51 54 56 58 61 62 62 62 60 59 58 57 60 66 71 73 72 71 68 65
15 20 24 26 28 31 32 34 35 35 37 37 35 34 35 36 39 42 44 46 49 51 52 53 55 57 56 58 61 62 66 69 68 66 65 63 64 63 66 72 73 70 69
17 21 22 23 25 26 27 29 30 32 34 37 39 41 43 45 48 51 53 55 57 59 60 62 64 65 66 67 68 68 68 68 68 67 70 72 70 68 67 65 67 70 68
19 22 25 27 28 29 30 30 32 34 36 40 43 45 46 48 50 53 56 58 60 63 65 68 70 71 73 75 76 77 78 78 77 76 73 72 72 75 74 72 71 68 70
21 23 25 27 30 33 35 38 40 42 43 44 47 48 49 50 53 56 60 63 66 69 72 75 77 79 80 82 83 84 86 87 86 84 83 82 79 76 75 78 78 76 73
26 29 31 34 37 40 41 43 45 47 47 47 49 52 55 58 62 65 69 73 75 77 79 80 82 85 87 87 87 88 89 91 92 92 91 90 89 87 83 80 79 81 79
30 32 35 37 39 42 43 44 45 46 48 52 55 59 62 66 69 70 72 74 77 81 83 85 86 87 88 89 90 91 93 95 94 93 93 92 91 91 90 87 84 81 83
33 35 37 38 40 42 43 46 49 51 55 59 61 65 70 73 73 75 78 82 84 85 85 86 86 87 86 85 83 82 80 80 79 80 82 83 87 89 88 87 86 84 82
35 39 41 42 45 47 49 52 55 59 63 66 69 72 75 77 79 82 84 85 86 86 86 84 79 73 69 65 63 63 62 61 62 62 62 62 64 67 73 80 83 83 82
40 44 45 48 50 52 55 59 62 66 70 74 77 79 80 82 85 86 87 88 86 81 74 68 64 61 59 57 55 54 54 54 54 54 54 54 52 54 59 64 70 74 77
45 48 50 52 54 58 62 65 69 73 77 79 81 82 85 87 88 90 89 82 74 68 64 60 58 56 54 52 49 49 48 46 45 43 42 44 46 47 50 53 56 61 65
49 51 54 57 60 65 68 71 75 78 80 82 84 86 88 90 89 84 77 70 66 63 61 57 55 54 51 48 46 43 42 40 38 38 36 36 37 39 41 43 48 52 56
53 56 59 63 66 69 72 75 78 81 83 85 88 90 91 87 81 74 69 66 63 60 58 56 53 50 48 46 43 40 38 36 34 33 32 31 31 31 33 36 40 44 49
57 61 64 67 70 73 76 78 81 84 86 89 91 89 84 78 73 70 66 63 60 59 56 54 52 48 45 43 41 38 35 34 32 30 29 29 28 27 28 30 35 39 43
62 65 67 70 73 76 79 81 84 87 89 91 88 82 76 72 70 67 65 62 59 57 54 52 49 46 43 41 39 35 34 32 30 29 28 27 26 25 25 25 30 34 37
Wind_Direction
2 203 224 2 228 214 214 210 209 222 224 232 241 240 253 249 249 227 234 229 235 247 257 264 266 264 269 273 277 277 285 278 279 280 267 269 261 258 257 260 265 273 280
134 103 116 109 153 221 216 211 209 216 232 251 237 257 262 242 230 238 231 232 236 243 264 263 261 266 266 269 273 274 275 278 280 277 278 270 260 253 252 260 263 270 274
24 24 73 327 271 228 223 220 216 224 235 245 249 255 238 232 235 268 252 239 239 245 253 256 265 269 267 267 269 273 272 273 276 277 263 264 265 257 258 261 261 265 269
23 337 84 215 243 199 210 211 222 246 239 239 240 256 252 241 235 235 246 263 271 263 262 259 269 272 272 270 270 269 270 270 264 270 271 264 252 258 261 260 257 261 264
304 225 266 273 165 250 211 219 238 257 265 246 234 260 256 252 265 272 276 276 272 272 269 270 267 272 272 272 271 267 270 269 269 267 269 263 257 254 262 264 263 262 265
81 145 181 236 247 233 217 224 237 243 245 247 251 260 267 269 266 264 269 274 274 270 265 266 266 266 266 266 267 265 261 263 263 260 265 254 253 253 261 266 266 262 263
157 246 255 237 203 219 219 225 236 242 245 251 255 258 266 272 271 272 273 271 274 262 255 257 265 264 266 263 260 264 253 252 253 262 262 256 254 259 260 260 260 260 263
55 60 62 64 74 129 169 202 231 249 260 266 267 264 267 267 269 269 270 269 272 275 272 272 264 265 260 265 262 262 255 261 252 248 256 246 252 255 259 262 260 259 258
29 29 32 28 23 23 21 10 349 330 303 291 291 290 284 275 272 271 270 271 270 271 271 273 276 276 272 272 272 271 265 268 259 255 255 257 254 256 255 258 261 264 261
37 31 25 20 15 359 351 334 321 313 305 296 288 283 281 281 281 279 277 278 278 278 278 277 276 275 274 275 274 271 272 266 265 266 265 263 259 258 261 260 264 264 265
2 353 346 340 337 333 329 324 318 309 298 291 286 282 279 279 278 278 278 277 276 276 276 277 277 278 278 277 277 275 273 271 269 263 261 263 261 259 259 261 259 262 259
340 339 336 332 328 324 321 318 317 315 308 301 296 294 292 287 283 281 278 276 276 278 279 278 274 274 273 273 273 273 273 272 270 269 267 265 264 261 260 260 261 262 261
324 326 326 324 323 321 319 316 314 311 307 304 301 299 298 296 295 294 292 292 293 294 292 289 283 280 277 273 271 270 269 267 267 268 268 266 265 264 262 260 259 260 259
315 314 312 311 310 309 306 304 302 299 298 297 296 296 298 298 297 296 295 294 293 293 293 292 290 288 285 283 282 279 276 273 271 269 265 262 263 263 263 262 259 256 255
311 310 309 311 311 310 307 305 303 302 301 301 300 298 297 295 293 292 291 289 288 288 289 290 290 287 284 282 282 281 280 278 276 274 270 268 266 260 258 258 258 258 251
308 309 310 309 308 307 307 306 304 303 301 301 302 302 302 303 302 300 298 296 294 292 291 290 288 287 286 284 282 281 280 279 277 276 272 270 268 265 262 257 254 253 254
307 309 309 309 308 308 308 309 309 309 309 308 306 306 306 305 305 304 302 300 298 296 294 293 292 290 288 286 284 282 280 277 275 274 271 269 267 266 263 261 258 253 250
301 302 303 304 305 306 307 307 307 307 308 309 309 310 310 310 308 307 305 305 304 303 300 298 296 293 291 289 287 284 281 279 276 273 269 267 264 261 259 258 257 255 252
298 300 302 304 306 308 309 309 310 310 311 312 312 312 312 312 311 310 309 308 306 304 302 300 298 296 294 292 289 286 283 281 278 275 272 267 262 258 255 253 252 251 251
297 302 303 304 307 310 310 311 312 313 313 313 314 314 314 314 313 312 310 308 307 305 304 302 299 296 293 291 290 289 288 285 282 278 274 270 265 259 252 247 245 245 244
301 302 304 307 309 310 310 310 312 313 314 315 315 316 315 314 313 312 311 309 307 305 302 299 296 294 293 293 292 291 290 289 285 280 275 269 265 260 253 247 244 241 239
303 305 306 307 308 310 311 312 314 315 315 316 316 316 315 314 314 312 310 308 305 303 300 298 296 294 293 293 294 294 293 291 287 281 275 269 264 259 255 251 244 239 236
304 305 307 308 309 311 312 313 314 315 315 316 316 316 315 315 313 310 309 306 304 302 299 297 294 293 292 292 292 292 291 288 284 281 275 271 267 263 257 251 245 238 235
304 305 307 309 310 311 312 314 315 316 316 316 316 316 315 313 311 310 308 306 303 300 298 296 294 291 290 289 289 290 287 283 280 277 273 271 268 263 258 251 245 240 235
305 307 309 309 311 312 314 315 316 316 317 316 316 315 313 312 311 309 307 305 303 300 298 295 292 288 285 285 285 285 282 278 275 273 271 270 269 266 259 252 246 240 236
307 309 310 311 313 314 315 316 316 317 316 316 314 313 313 312 311 309 307 306 303 300 297 293 290 285 280 280 279 280 278 274 271 268 267 267 267 267 263 256 250 244 239